TimeAKDT,TemperatureF,Dew PointF,Humidity,Sea Level PressureIn,VisibilityMPH,Wind Direction,Wind SpeedMPH,Gust SpeedMPH,PrecipitationIn,Events,Conditions,WindDirDegrees,DateUTC
12:53 AM,53.1,48.0,83,29.71,10.0,Calm,Calm,-,N/A,,Mostly Cloudy,0,2013-09-11 08:53:00
1:53 AM,48.9,46.0,90,29.71,10.0,Calm,Calm,-,N/A,,Mostly Cloudy,0,2013-09-11 09:53:00
2:53 AM,48.9,45.0,86,29.70,10.0,Calm,Calm,-,N/A,,Scattered Clouds,0,2013-09-11 10:53:00
3:53 AM,46.0,43.0,89,29.69,10.0,Calm,Calm,-,N/A,,Partly Cloudy,0,2013-09-11 11:53:00
4:53 AM,45.0,41.0,86,29.67,10.0,NE,6.9,-,N/A,,Partly Cloudy,40,2013-09-11 12:53:00
5:53 AM,46.0,43.0,89,29.66,10.0,Calm,Calm,-,N/A,,Scattered Clouds,0,2013-09-11 13:53:00
6:53 AM,46.0,42.1,86,29.65,10.0,NNE,3.5,-,N/A,,Mostly Cloudy,30,2013-09-11 14:53:00
7:53 AM,46.9,43.0,86,29.62,10.0,Calm,Calm,-,N/A,,Mostly Cloudy,0,2013-09-11 15:53:00
8:53 AM,48.9,44.1,83,29.61,10.0,ENE,5.8,-,N/A,,Overcast,60,2013-09-11 16:53:00
9:53 AM,50.0,43.0,77,29.58,10.0,NE,5.8,-,N/A,,Overcast,50,2013-09-11 17:53:00
10:53 AM,48.9,43.0,80,29.60,10.0,SSE,9.2,-,0.00,Rain,Light Rain,160,2013-09-11 18:53:00
11:53 AM,48.9,44.1,83,29.60,7.0,North,5.8,-,0.03,Rain,Rain,360,2013-09-11 19:53:00
12:53 PM,50.0,46.9,89,29.58,6.0,NNW,5.8,-,0.08,Rain,Rain,330,2013-09-11 20:53:00
1:53 PM,50.0,46.9,89,29.56,5.0,Calm,Calm,-,0.05,Rain,Rain,0,2013-09-11 21:53:00
2:53 PM,50.0,48.0,93,29.58,5.0,Calm,Calm,-,0.14,Rain,Rain,0,2013-09-11 22:53:00
3:53 PM,50.0,46.9,89,29.60,3.0,SSW,8.1,-,0.11,Rain,Rain,200,2013-09-11 23:53:00
4:53 PM,48.0,46.0,93,29.61,2.5,SW,5.8,-,0.09,Rain,Rain,220,2013-09-12 00:53:00
5:04 PM,48.0,46.0,93,29.60,3.0,SW,5.8,-,0.01,Rain,Light Rain,220,2013-09-12 01:04:00
5:53 PM,48.9,46.0,90,29.63,5.0,SSW,9.2,-,0.03,Rain,Light Rain,210,2013-09-12 01:53:00
6:53 PM,48.9,46.0,90,29.66,5.0,SW,8.1,-,0.06,Rain,Light Rain,220,2013-09-12 02:53:00
7:53 PM,48.9,46.0,90,29.68,6.0,WSW,8.1,18.4,0.05,Rain,Light Rain,240,2013-09-12 03:53:00
8:53 PM,50.0,46.9,89,29.71,7.0,SW,4.6,-,0.02,Rain,Light Rain,230,2013-09-12 04:53:00
9:53 PM,50.0,48.0,93,29.74,7.0,SW,5.8,-,0.02,Rain,Light Rain,230,2013-09-12 05:53:00
10:53 PM,51.1,46.9,86,29.78,6.0,WSW,12.7,19.6,0.02,Rain,Light Rain,240,2013-09-12 06:53:00
11:53 PM,50.0,46.0,86,29.81,10.0,WSW,11.5,18.4,0.00,Rain,Light Rain,240,2013-09-12 07:53:00